Back to catalog

STARLINK-30085

AliveCommunicationsVLEO
NORAD 56709·PAYLOAD·🇺🇸 United States

Launched May 19, 2023 from Cape Canaveral Space Force Station

Loading…

Next Passes (next 24 hours)

TLE

FreshSource: CelesTrak SupGP

Epoch: Sep 14, 2026, 14:55 UTC

1 56709C 23067X   26257.62201389  .00025373  00000+0  91888-3 0  2571
2 56709  43.0024 283.7839 0001590 282.6149 238.9907 15.27570400    19

Track STARLINK-30085 in real time with AllMySat

Download on the App Store